Location: ?????????
(55.7287°N, 39.3844°E)
Time: 23:01:51
(UTC+00:00)

Daily predictions for brighter satellites

Satellite Brightness Start Highest point End
(mag) Time Altitude Azimuth Time Altitude Azimuth Time Altitude Azimuth
NOSS 3-3 (A) 4.3 14:51:30 10° S 14:56:23 39° ESE 15:02:12 10° ENE
YAOGAN 1 2.8 14:56:46 10° SE 15:00:50 46° ENE 15:04:56 10° N
SMAP 4.1 14:59:58 10° S 15:04:30 52° W 15:09:06 10° NNW
Cosmos 2061 Rocket 4.0 14:58:10 10° N 15:04:35 72° ENE 15:10:53 10° SSE
Cosmos 724 4.5 14:58:38 10° SSW 15:04:43 66° SE 15:10:43 10° NE
Spot 4 Rocket 4.2 15:01:00 10° SE 15:05:53 48° ENE 15:10:48 10° N
NOAA 6 4.4 15:02:05 10° SE 15:06:55 42° ENE 15:11:46 10° N
ARIANE 5 R/B 2.9 15:05:24 10° S 15:10:29 71° WSW 15:15:33 10° NNW
SJ-6F 4.3 15:06:44 10° SSE 15:10:41 89° ENE 15:14:37 10° NNW
SAR-Lupe-1 4.0 15:07:12 10° SSE 15:10:44 68° ENE 15:14:19 10° NNW
UNK 3.7 15:06:13 10° NNE 15:10:49 84° ESE 15:15:24 10° SSW
Okean 1 Rocket 3.0 15:07:36 10° N 15:12:01 71° ENE 15:16:23 10° SSE
NOSS 3-4 (A) 3.8 15:05:56 10° NW 15:12:22 88° NE 15:19:59 10° SE
CZ-4C R/B 2.2 15:08:07 10° SSW 15:12:23 51° SE 15:17:54 10° NE
NOSS 3-4 (C) 3.8 15:06:12 10° NW 15:12:39 88° NE 15:20:18 10° SE
SL-16 R/B 3.0 15:06:45 10° NNE 15:12:53 66° WNW 15:19:02 10° SW
USA 290 2.2 15:12:02 10° SSW 15:15:13 87° WNW 15:18:26 10° NNE
SJ-7 4.5 15:12:20 10° SE 15:15:50 43° ENE 15:19:20 10° N
Terra 3.8 15:15:02 10° NE 15:16:02 11° NE 15:17:02 10° NNE
Aureole 3 Rocket 2.7 15:14:55 10° N 15:19:04 56° ENE 15:22:19 10° SSE
Okean 2 Rocket 3.1 15:15:24 10° NNW 15:19:50 87° W 15:24:13 10° S
SL-16 R/B 2.6 15:14:49 10° NNW 15:20:13 43° NE 15:25:36 10° ESE
Cosmos 1378 Rocket 3.6 15:17:20 10° SSW 15:21:38 86° W 15:25:57 10° NNE
Cosmos 2227 Rocket 3.5 15:19:22 10° SE 15:23:14 19° E 15:27:06 10° ENE
Cosmos 1315 Rocket 4.0 15:20:01 10° NNW 15:23:39 45° W 15:27:16 10° S
SAR-Lupe-4 3.7 15:23:21 10° SSE 15:26:56 80° WSW 15:30:31 10° NNW
Cosmos 2221 Rocket 3.7 15:22:35 10° S 15:26:56 53° E 15:31:21 10° NNE
Cosmos 1025 Rocket 3.0 15:24:54 10° S 15:29:11 68° E 15:33:32 10° NNE
ATLAS 2AS CENTAUR R/B 3.3 15:23:39 10° W 15:30:21 50° NNW 15:36:56 10° ENE
Cosmos 2150 Rocket 4.0 15:25:50 10° NNW 15:30:59 62° ENE 15:36:04 10° SE
Cosmos 1346 Rocket 4.4 15:29:45 10° ESE 15:31:09 13° E 15:31:09 13° E
Cosmos 2298 Rocket 4.0 15:29:37 10° NNW 15:34:55 63° ENE 15:40:10 10° SE
Cosmos 2123 Rocket 4.5 15:29:14 10° SSW 15:35:31 67° WNW 15:41:49 10° N
Sich 1 Rocket 3.9 15:31:50 10° NNW 15:36:24 77° W 15:40:56 10° S
Cosmos 2346 Rocket 4.5 15:31:16 10° S 15:37:27 67° E 15:43:39 10° NNE
SKYMED 2 3.5 15:35:29 10° NNE 15:39:50 68° ESE 15:44:10 10° S
GP-B 4.0 15:36:59 10° SSW 15:41:16 53° W 15:45:35 10° N
Resurs 1-3 3.8 15:40:18 10° S 15:44:35 73° WSW 15:48:55 10° NNW
USA 267 3.3 15:43:09 14° ENE 15:48:58 68° SSE 15:55:29 10° SW
BREEZE-M (TANK) 4.4 15:46:51 10° WSW 15:49:00 21° S 15:53:00 10° SE
CZ-4B R/B 4.3 15:48:18 17° E 15:50:48 23° NE 15:54:54 10° N
Resurs 01 Rocket 1.5 15:47:20 10° SSE 15:51:42 67° ENE 15:56:06 10° N
ATLAS CENTAUR R/B 2.1 15:49:31 10° NNW 15:51:46 20° NNE 15:52:30 18° NE
Lacrosse 5 rocket 0.9 15:48:44 10° W 15:52:15 80° NNW 15:54:24 23° ENE
Radarsat Rocket 4.2 15:47:22 10° SSE 15:53:19 81° WSW 15:59:55 10° NNW
CZ-4 R/B 2.4 15:52:51 21° ENE 15:53:31 22° ENE 15:56:27 10° N
Cosmos 1782 2.8 15:53:15 10° N 15:56:44 44° ENE 16:00:11 10° SSE
Cosmos 1674 Rocket 4.3 15:54:42 10° SSW 15:59:02 56° WNW 16:03:25 10° N
CSL-04 Rocket 4.0 15:54:37 10° SE 15:59:30 40° ENE 16:04:25 10° N
Cosmos 2344 4.3 15:55:00 10° SSE 16:01:05 26° ESE 16:04:25 19° ENE
ERS-1 Rocket 4.1 16:00:19 21° E 16:01:48 24° NE 16:05:44 10° N
Cosmos 2082 Rocket 4.2 15:57:57 10° NW 16:01:52 19° NNW 16:05:49 10° NNE
SL-19 R/B 4.5 15:56:07 10° SSE 16:02:15 86° WSW 16:08:05 10° NNW
CARTOSAT-1 3.6 15:58:48 10° SSE 16:03:01 79° WSW 16:07:14 10° NNW
Cosmos 1447 Rocket 4.4 15:59:20 10° S 16:05:28 89° E 16:11:41 10° NNE
Cosmos 2297 Rocket 2.1 16:01:26 10° SSW 16:07:03 70° ESE 16:12:42 10° NE
ARIANE 6 FM1 Upper Stage 2.4 16:03:05 10° NW 16:07:04 88° NE 16:09:27 23° SE
Cosmos 1943 3.8 16:01:43 10° NNW 16:07:06 40° NE 16:10:06 23° E
Cosmos 1933 4.5 16:05:58 10° N 16:08:40 23° NE 16:08:40 23° NE
RESURS DK-1 3.2 16:09:49 10° NNW 16:13:24 31° NE 16:14:11 28° ENE
SPOT 5 3.2 16:13:19 14° SE 16:17:21 49° ENE 16:22:20 10° N
IRAS Rocket 4.2 16:12:12 10° SSE 16:17:50 89° ENE 16:23:30 10° NNW
Cosmos 1867 4.2 16:14:28 10° WSW 16:19:47 52° NNW 16:24:09 15° NE
NOSS 3-3 (C) 3.8 16:14:51 10° SW 16:20:20 89° SE 16:25:36 17° NE
Okean-O 4.4 16:22:27 16° NE 16:22:27 16° NE 16:24:25 10° NNE
Okean O Rocket 3.3 16:24:35 18° NE 16:24:35 18° NE 16:26:46 10° N
SJ-6B 2.5 16:21:46 10° SSE 16:25:12 82° WSW 16:28:41 10° NNW
Iridium 4 Rocket 4.4 16:21:33 10° NNE 16:24:56 25° NE 16:24:56 25° NE
Cosmos 2228 3.1 16:22:17 10° NNW 16:26:29 74° W 16:30:40 10° S
COSMO-SKYMED 1 2.6 16:22:31 10° NNE 16:26:39 74° WNW 16:30:44 10° SSW
Cosmos 1816 Rocket 4.5 16:21:17 10° S 16:27:18 58° E 16:33:26 10° NNE
Cosmos 1544 Rocket 3.4 16:24:13 10° N 16:28:33 65° ENE 16:31:54 16° SSE
Cosmos 1570 Rocket 3.9 16:23:54 10° SSW 16:29:11 85° ESE 16:34:28 10° NNE
Cosmos 2034 Rocket 3.9 16:23:15 10° N 16:29:27 72° ENE 16:35:38 10° SSE
Cosmos 1607 4.3 16:25:57 10° WSW 16:32:03 63° NW 16:36:58 17° NE
Meteor 1-31 Rocket 2.4 16:32:28 54° ESE 16:32:59 63° ENE 16:36:25 10° N
Cosmos 1455 Rocket 4.4 16:29:20 10° NNW 16:33:22 40° W 16:37:23 10° SSW
ADEOS 4.0 16:32:23 34° E 16:33:52 41° ENE 16:38:45 10° N
DMSP B5D1-3 4.4 16:28:45 10° NNE 16:33:54 78° ESE 16:39:01 10° SSW
Cosmos 2263 Rocket 2.7 16:28:49 10° S 16:33:56 36° ESE 16:34:55 33° E
Cosmos 1634 Rocket 4.1 16:29:43 10° N 16:35:54 51° ENE 16:39:43 23° SE
Cosmos 2237 Rocket 4.1 16:32:40 10° NW 16:37:34 30° WSW 16:42:26 10° SSW
Cosmos 1975 Rocket 2.9 16:35:11 10° S 16:39:32 86° E 16:43:52 10° NNE
CZ-4B R/B 3.6 16:37:56 29° SSE 16:39:53 79° ENE 16:43:45 10° NNW
Feng Yun 1-1 Rocket 4.4 16:41:06 25° SE 16:44:31 61° ENE 16:50:22 10° NNW
Cosmos 773 Rocket 3.9 16:40:40 10° SSW 16:45:57 90° SSE 16:51:17 10° NNE
Cosmos 972 Rocket 3.9 16:41:02 10° NNW 16:45:58 66° ENE 16:47:52 38° SE
PAYLOAD B 4.3 16:44:10 30° SE 16:46:52 60° ENE 16:52:23 10° NNW
NOSS 3-3 (A) 4.1 16:41:20 10° WSW 16:46:52 69° NNW 16:51:18 22° NE
Cosmos 1833 Rocket 4.1 16:46:20 10° NNW 16:50:39 22° NNE 16:51:50 20° NE
Cosmos 2208 Rocket 4.0 16:46:13 10° SSW 16:51:30 88° WNW 16:56:54 10° NNE
Terra 2.2 16:52:47 42° NE 16:52:47 42° NE 16:56:55 10° N
Cosmos 2279 Rocket 4.1 16:51:00 10° N 16:57:03 51° ENE 16:58:26 43° ESE
CZ-4C R/B 2.6 16:55:53 10° WSW 17:00:37 55° NNW 17:03:44 27° NE
Cosmos 44 Rocket 3.2 16:57:37 10° SW 17:02:37 84° SE 17:03:58 50° NE
Cosmos 2084 Rocket 4.2 17:00:26 10° NW 17:04:18 38° NNE 17:04:18 38° NNE
SL-16 R/B 2.8 16:59:01 10° NW 17:04:32 54° WSW 17:08:54 16° S
Cosmos 1346 Rocket 3.0 17:02:40 10° SSW 17:05:39 55° SW 17:05:39 55° SW
Cosmos 2227 Rocket 2.0 17:00:48 10° SSW 17:06:28 82° ESE 17:09:38 27° NE
MetOp-B 4.0 17:15:56 63° SE 17:16:40 74° ENE 17:22:03 10° NNW
Cosmos 1420 Rocket 4.0 17:16:54 10° NNW 17:21:43 61° NE 17:21:43 61° NE
ATLAS 2AS CENTAUR R/B 3.3 17:15:55 10° WNW 17:22:28 45° N 17:24:21 37° NE
ATLAS CENTAUR R/B 3.4 17:23:00 10° NW 17:23:42 16° NW 17:23:42 16° NW
CZ-4 R/B 2.2 17:27:51 45° WNW 17:27:51 45° WNW 17:31:00 10° NNW
Resurs 01 Rocket 4.2 17:25:14 10° SW 17:28:31 20° W 17:31:49 10° NW
Lacrosse 5 rocket 2.5 17:25:38 10° WNW 17:27:50 35° WNW 17:27:50 35° WNW
IRS-1A Rocket 4.2 17:29:14 70° E 17:29:24 71° ENE 17:35:04 10° NNW
CZ-4B R/B 3.0 17:30:09 69° S 17:30:49 86° WSW 17:36:10 10° NNW
MOS 1-B 4.3 17:31:40 66° ENE 17:31:40 66° ENE 17:37:21 10° NNW
USA 267 3.2 17:30:29 54° ENE 17:32:11 83° N 17:38:45 10° W
ERS-1 Rocket 3.0 17:40:10 77° W 17:40:10 77° W 17:45:05 10° NNW
Cosmos 44 4.1 17:36:19 10° NW 17:40:56 48° N 17:40:56 48° N
Cosmos 2082 Rocket 4.0 17:44:03 10° NNW 17:48:09 20° NNE 17:48:32 19° NNE
RESURS DK-1 4.0 17:47:07 10° NW 17:49:28 32° WNW 17:49:28 32° WNW
Cosmos 1943 3.5 17:45:47 10° NW 17:51:25 60° WSW 17:51:54 58° SW
Cosmos 2297 Rocket 3.6 17:46:19 10° WSW 17:51:31 36° NW 17:55:15 18° NNE
Tsikada Rocket 4.1 17:46:30 10° SSW 17:52:38 73° WNW 17:58:52 10° N
SPOT 5 4.5 17:52:21 17° SSW 17:55:29 34° W 18:00:09 10° NNW
Okean-O 4.4 17:59:48 25° NNW 17:59:48 25° NNW 18:01:40 10° NNW
Okean O Rocket 3.4 18:01:49 26° NNW 18:01:49 26° NNW 18:03:47 10° NNW
Spot 2 Rocket 4.4 18:06:26 42° NNW 18:06:26 42° NNW 18:09:48 10° NNW
Iridium 4 Rocket 4.4 18:01:02 10° NNW 18:04:29 40° NW 18:04:29 40° NW
Cosmos 1603 4.0 18:01:35 10° NW 18:06:13 61° NW 18:06:13 61° NW
Cosmos 2056 Rocket 4.5 18:07:58 10° NNW 18:11:25 42° NNW 18:11:25 42° NNW
Cosmos 2344 3.3 18:06:56 10° SW 18:14:24 88° SE 18:14:29 88° E
Cosmos 2263 Rocket 2.8 18:12:00 10° SW 18:16:41 52° W 18:16:41 52° W
Terra 3.6 18:31:24 29° WNW 18:31:24 29° WNW 18:34:25 10° NNW
USA 281 4.3 18:34:00 34° NNE 18:34:00 34° NNE 18:38:42 10° NNW
Cosmos 909 Rocket 4.5 18:28:50 10° NW 18:33:54 59° NNW 18:33:54 59° NNW
Cosmos 1833 Rocket 4.1 18:30:19 10° NNW 18:33:30 32° NNW 18:33:30 32° NNW
CZ-4C R/B 3.5 18:44:43 10° WNW 18:48:41 37° NNW 18:48:41 37° NNW
Cosmos 2227 Rocket 3.7 18:46:05 10° W 18:51:07 32° NW 18:51:30 32° NNW
ATLAS 2AS CENTAUR R/B 3.6 19:07:20 10° NW 19:11:46 43° NW 19:11:46 43° NW
USA 267 4.2 19:17:49 41° WNW 19:17:49 41° WNW 19:21:49 10° WNW
Cosmos 2082 Rocket 4.4 19:28:24 10° NNW 19:30:22 21° NNW 19:30:22 21° NNW
Cosmos 2297 Rocket 4.5 19:33:18 10° WNW 19:37:04 19° NNW 19:37:04 19° NNW
CENTAUR R/B 4.2 23:07:19 33° NE 23:07:19 33° NE 23:11:35 10° NE
ACS3 Solar Sail 3.7 23:21:05 10° NNE 23:23:03 22° NNE 23:23:03 22° NNE
SL-16 R/B 4.1 23:43:01 28° NNE 23:43:01 28° NNE 23:46:21 10° N
USA 215 4.4 23:41:45 10° E 23:45:20 36° ENE 23:45:20 36° ENE
Cosmos 2369 Rocket 4.2 23:52:33 24° NNE 23:52:33 24° NNE 23:54:47 10° NNE
